Weather History for KUTA - April, 2013

Change the Weather History Date:

Tuesday, April 9, 2013

  Actual Average (KMEM) Record (KMEM)
Temperature  
Mean Temperature 72 °F 61 °F  
Max Temperature 82 °F 71 °F 88 °F (2011)
Min Temperature 62 °F 51 °F 32 °F (1957)
Degree Days  
Heating Degree Days 0 6  
Month to date heating degree days 61  
Since 1 July heating degree days 2869  
Cooling Degree Days 7 2  
Month to date cooling degree days 16  
Year to date cooling degree days 36  
Growing Degree Days 22 (Base 50)    
Moisture  
Dew Point 63 °F    
Average Humidity 75    
Maximum Humidity 94    
Minimum Humidity 54    
Precipitation  
Precipitation 0.00 in 0.18 in 3.42 in (1913)
Month to date precipitation 1.56  
Year to date precipitation 15.09  
Snow  
Snow 0.00 in 0.00 in - ()
Month to date snowfall 0.0  
Since 1 July snowfall 3.8  
Snow Depth -    
Sea Level Pressure  
Sea Level Pressure 29.93 in    
Wind  
Wind Speed 11 mph (SSE)    
Max Wind Speed 23 mph    
Max Gust Speed 29 mph    
Visibility 10 miles    
Events Rain , Thunderstorm    
T = Trace of Precipitation, MM = Missing Value Source: NWS Daily Summary

Daily Weather History Graph

Daily Weather History Graph

Search for Another Location

Airport or City:

Trip Planner

Search our weather history database for the weather conditions in past years. The results will help you decide how hot, cold, wet, or windy it might be!

Date:

Astronomy

Apr. 09, 2013 Rise Set
Actual Time 6:37 AM CDT 7:29 PM CDT
Civil Twilight 6:11 AM CDT 7:54 PM CDT
Nautical Twilight 5:41 AM CDT 8:25 PM CDT
Astronomical Twilight 5:10 AM CDT 8:56 PM CDT
Moon 5:58 AM CDT (4/9) 7:04 PM CDT (4/9)
Length of Visible Light 13h 43m
Length of Day
12h 51m
Waning Crescent, 1% of the Moon is Illuminated
Apr 9
Waning Crescent
Apr 10
New
Apr 18
First Quarter
Apr 25
Full
May 2
Last Quarter

Hourly Weather History & Observations

Time (CDT) Temp. Heat Index Dew Point Humidity Pressure Visibility Wind Dir Wind Speed Gust Speed Precip Events Conditions
12:15 AM 64.4 °F - 59.0 °F 83% 29.91 in 10.0 mi SSE 6.9 mph - N/A   Clear
12:55 AM 64.4 °F - 59.0 °F 83% 29.92 in 10.0 mi South 5.8 mph - N/A   Clear
1:15 AM 64.4 °F - 59.0 °F 83% 29.92 in 10.0 mi South 8.1 mph - N/A   Clear
1:35 AM 64.4 °F - 59.0 °F 83% 29.92 in 10.0 mi South 8.1 mph - N/A   Clear
1:55 AM 66.2 °F - 59.0 °F 78% 29.92 in 10.0 mi South 9.2 mph - N/A   Clear
2:15 AM 64.4 °F - 59.0 °F 83% 29.92 in 10.0 mi South 8.1 mph - N/A   Clear
2:35 AM 66.2 °F - 59.0 °F 78% 29.92 in 10.0 mi South 10.4 mph - N/A   Scattered Clouds
2:55 AM 64.4 °F - 59.0 °F 83% 29.91 in 10.0 mi SSE 10.4 mph - N/A   Scattered Clouds
3:15 AM 64.4 °F - 59.0 °F 83% 29.91 in 10.0 mi SSE 9.2 mph - N/A   Clear
3:35 AM 64.4 °F - 59.0 °F 83% 29.91 in 10.0 mi SSE 9.2 mph - N/A   Clear
3:55 AM 64.4 °F - 60.8 °F 88% 29.91 in 10.0 mi SSE 9.2 mph - N/A   Clear
4:15 AM 64.4 °F - 60.8 °F 88% 29.91 in 10.0 mi SE 6.9 mph - N/A   Mostly Cloudy
4:35 AM 64.4 °F - 60.8 °F 88% 29.92 in 10.0 mi SE 8.1 mph - N/A   Mostly Cloudy
4:55 AM 64.4 °F - 60.8 °F 88% 29.92 in 10.0 mi SSE 10.4 mph - N/A   Mostly Cloudy
5:15 AM 64.4 °F - 60.8 °F 88% 29.92 in 10.0 mi SSE 10.4 mph - N/A   Mostly Cloudy
5:35 AM 64.4 °F - 60.8 °F 88% 29.93 in 10.0 mi SSE 11.5 mph - N/A   Mostly Cloudy
5:55 AM 64.4 °F - 60.8 °F 88% 29.93 in 10.0 mi SSE 9.2 mph - N/A   Scattered Clouds
6:15 AM 64.4 °F - 60.8 °F 88% 29.93 in 10.0 mi SSE 10.4 mph - N/A   Clear
6:35 AM 62.6 °F - 60.8 °F 94% 29.94 in 10.0 mi SSE 9.2 mph - N/A   Clear
6:55 AM 62.6 °F - 60.8 °F 94% 29.95 in 7.0 mi SSE 8.1 mph - N/A   Scattered Clouds
7:15 AM 64.4 °F - 60.8 °F 88% 29.97 in 10.0 mi SSE 8.1 mph - N/A   Mostly Cloudy
7:35 AM 64.4 °F - 62.6 °F 94% 29.98 in 10.0 mi SE 11.5 mph - N/A   Mostly Cloudy
7:55 AM 66.2 °F - 62.6 °F 88% 29.98 in 10.0 mi SE 10.4 mph - N/A   Mostly Cloudy
8:35 AM 66.2 °F - 62.6 °F 88% 29.99 in 10.0 mi SE 9.2 mph - N/A Rain Light Rain
8:55 AM 68.0 °F - 62.6 °F 83% 29.99 in 10.0 mi SE 13.8 mph - N/A Thunderstorm Scattered Clouds
9:15 AM 68.0 °F - 62.6 °F 83% 29.99 in 10.0 mi SSE 13.8 mph 19.6 mph N/A Thunderstorm Clear
9:35 AM 68.0 °F - 62.6 °F 83% 30.00 in 10.0 mi SSE 12.7 mph - N/A Rain , Thunderstorm Light Thunderstorms and Rain
9:55 AM 68.0 °F - 62.6 °F 83% 30.00 in 7.0 mi SSE 12.7 mph - N/A Rain , Thunderstorm Light Thunderstorms and Rain
10:15 AM 68.0 °F - 64.4 °F 88% 30.00 in 10.0 mi SSE 10.4 mph - N/A   Clear
10:35 AM 69.8 °F - 64.4 °F 83% 30.00 in 10.0 mi SSE 13.8 mph - N/A   Clear
10:55 AM 73.4 °F - 66.2 °F 78% 30.00 in 10.0 mi SSE 17.3 mph 23.0 mph N/A   Clear
11:15 AM 73.4 °F - 66.2 °F 78% 30.00 in 10.0 mi SSE 16.1 mph 20.7 mph N/A   Clear
11:55 AM 73.4 °F - 64.4 °F 73% 29.99 in 10.0 mi SSE 16.1 mph 25.3 mph N/A   Clear
12:15 PM 73.4 °F - 64.4 °F 73% 29.98 in 10.0 mi South 15.0 mph 24.2 mph N/A   Clear
12:35 PM 75.2 °F - 64.4 °F 69% 29.98 in 10.0 mi South 18.4 mph 26.5 mph N/A   Clear
12:55 PM 77.0 °F - 64.4 °F 65% 29.98 in 10.0 mi South 20.7 mph 26.5 mph N/A   Scattered Clouds
1:15 PM 77.0 °F - 66.2 °F 69% 29.97 in 10.0 mi South 17.3 mph 24.2 mph N/A   Scattered Clouds
1:35 PM 77.0 °F - 66.2 °F 69% 29.96 in 10.0 mi South 18.4 mph 24.2 mph N/A   Scattered Clouds
1:55 PM 80.6 °F 82.7 °F 66.2 °F 61% 29.95 in 10.0 mi South 19.6 mph 25.3 mph N/A   Scattered Clouds
2:15 PM 78.8 °F - 64.4 °F 61% 29.94 in 10.0 mi South 23.0 mph 28.8 mph N/A   Clear
2:35 PM 80.6 °F 82.3 °F 64.4 °F 58% 29.94 in 10.0 mi South 18.4 mph 25.3 mph N/A   Clear
2:55 PM 80.6 °F 82.7 °F 66.2 °F 61% 29.93 in 10.0 mi South 18.4 mph 24.2 mph N/A   Clear
3:15 PM 80.6 °F 82.3 °F 64.4 °F 58% 29.92 in 10.0 mi SSE 21.9 mph 27.6 mph N/A   Scattered Clouds
3:35 PM 80.6 °F 82.3 °F 64.4 °F 58% 29.91 in 10.0 mi South 20.7 mph - N/A   Clear
3:55 PM 80.6 °F 82.3 °F 64.4 °F 58% 29.90 in 10.0 mi South 20.7 mph 26.5 mph N/A   Clear
4:15 PM 80.6 °F 82.3 °F 64.4 °F 58% 29.89 in 10.0 mi SSE 20.7 mph 28.8 mph N/A   Clear
4:35 PM 82.4 °F 83.9 °F 64.4 °F 54% 29.89 in 10.0 mi SSE 20.7 mph 25.3 mph N/A   Clear
4:55 PM 80.6 °F 82.3 °F 64.4 °F 58% 29.89 in 10.0 mi SSE 18.4 mph 26.5 mph N/A   Clear
5:15 PM 80.6 °F 82.3 °F 64.4 °F 58% 29.89 in 10.0 mi SSE 19.6 mph 26.5 mph N/A   Clear
5:35 PM 80.6 °F 82.3 °F 64.4 °F 58% 29.90 in 10.0 mi SSE 17.3 mph 25.3 mph N/A   Clear
5:55 PM 80.6 °F 82.3 °F 64.4 °F 58% 29.90 in 10.0 mi South 13.8 mph 24.2 mph N/A   Scattered Clouds
6:15 PM 80.6 °F 82.3 °F 64.4 °F 58% 29.90 in 10.0 mi SSE 15.0 mph 21.9 mph N/A   Scattered Clouds
6:35 PM 80.6 °F 82.3 °F 64.4 °F 58% 29.88 in 10.0 mi SSE 15.0 mph - N/A   Scattered Clouds
6:55 PM 78.8 °F - 64.4 °F 61% 29.87 in 10.0 mi SE 12.7 mph 18.4 mph N/A   Scattered Clouds
7:15 PM 78.8 °F - 64.4 °F 61% 29.87 in 10.0 mi SE 11.5 mph - N/A   Clear
7:35 PM 77.0 °F - 64.4 °F 65% 29.88 in 10.0 mi SSE 8.1 mph - N/A   Clear
7:55 PM 75.2 °F - 64.4 °F 69% 29.89 in 10.0 mi SSE 8.1 mph - N/A   Clear
8:15 PM 73.4 °F - 64.4 °F 73% 29.90 in 10.0 mi SSE 10.4 mph - N/A   Clear
8:35 PM 73.4 °F - 64.4 °F 73% 29.90 in 10.0 mi SSE 9.2 mph - N/A   Clear
8:55 PM 73.4 °F - 64.4 °F 73% 29.91 in 10.0 mi SSE 8.1 mph - N/A   Clear
9:35 PM 73.4 °F - 64.4 °F 73% 29.90 in 10.0 mi SE 12.7 mph - N/A   Clear
9:55 PM 73.4 °F - 64.4 °F 73% 29.89 in 10.0 mi SE 15.0 mph - N/A   Clear
10:15 PM 75.2 °F - 64.4 °F 69% 29.87 in 10.0 mi SE 15.0 mph - N/A   Clear
10:35 PM 77.0 °F - 64.4 °F 65% 29.91 in 10.0 mi SSE 16.1 mph 19.6 mph N/A   Clear
10:55 PM 75.2 °F - 64.4 °F 69% 29.92 in 10.0 mi SSE 12.7 mph 20.7 mph N/A   Clear
11:15 PM 73.4 °F - 64.4 °F 73% 29.92 in 10.0 mi SSE 11.5 mph 16.1 mph N/A   Clear
11:35 PM 71.6 °F - 64.4 °F 78% 29.92 in 10.0 mi SSE 11.5 mph - N/A   Clear
11:55 PM 71.6 °F - 64.4 °F 78% 29.92 in 10.0 mi SSE 11.5 mph - N/A   Clear